Location: Domont
(49.0278°N, 2.3264°E)
Time: 16:56:49
(UTC+00:00)

Envisat - Pass Details

Date: 31 January 2022
Orbit: 764 x 765 km, 98.2° (Epoch: 19 May)

Event Time Altitude Azimuth Distance (km) Brightness Sun altitude
Rises 17:29:59 0° 224° (SW) 3,220 7.5 -7.5°
Reaches altitude 10° 17:34:18 10° 260° (W) 2,302 7.2 -8.2°
Maximum altitude 17:35:40 11° 276° (W) 2,233 6.7 -8.4°
Drops below altitude 10° 17:37:03 10° 292° (WNW) 2,307 6.3 -8.6°
Sets 17:41:25 0° 327° (NNW) 3,241 6.5 -9.3°
